{"data":{"norad_id":68664,"intl_designator":"2026-077C","name":"STARLINK-37153","alt_names":[],"object_type":"PAYLOAD","status":"ACTIVE","operator":null,"country":"US","launch_date":"2026-04-11","launch_site_code":"AFWTR","launch_vehicle":null,"mission":null,"orbit_class":"UNKNOWN","rcs_meters":null,"size_class":null,"mass_kg":null,"dimensions":null,"purposes":["comms"],"wikipedia_slug":null,"has_3d_model":false,"image_url":null,"decayed_at":null,"tle_current":{"epoch":"2026-05-25T02:14:37.775328Z","epoch_age_seconds":60811,"freshness":"FRESH","line1":"1 68664U 26077C   26145.09349277  .00022875  00000+0  70852-3 0  9999","line2":"2 68664  97.2862  16.6171 0001565  95.2626 264.8795 15.33454647  6868","mean_motion":15.33454647,"eccentricity":0.0001565,"inclination_deg":97.2862,"raan_deg":16.6171,"arg_perigee_deg":95.2626,"mean_anomaly_deg":264.8795,"bstar":0.00070852,"rev_number":686,"period_min":93.905613890647,"perigee_km":464.44344048849,"apogee_km":466.58550339921,"semimajor_km":6843.6514719438,"source":"CELESTRAK","updated_at":"2026-05-25T13:38:21.991391Z"}}}